This is the latest recevied weather packets stored in our database for station/object JO1YDG-13. If no packets are shown the sender has not sent any weather packets the latest 10 day(s).
| Time | Temp. | Humidity | Pressure | Rain* | Wind** | Luminosity | Snow |
|---|---|---|---|---|---|---|---|
| 1778092438 | 15° C | 82% | 988.8 hPa | 0 mm | - | - | - |
| 1778092138 | 15° C | 81% | 988.8 hPa | 0 mm | - | - | - |
| 1778091838 | 15° C | 78% | 988.6 hPa | 0 mm | - | - | - |
| 1778091538 | 15° C | 78% | 988.6 hPa | 0 mm | - | - | - |
| 1778091238 | 15° C | 78% | 988.8 hPa | 0 mm | - | - | - |
| 1778090938 | 15° C | 78% | 988.8 hPa | 0 mm | - | - | - |
| 1778090640 | 15° C | 78% | 988.8 hPa | 0 mm | - | - | - |
| 1778089139 | 15° C | 84% | 988.7 hPa | 0 mm | - | - | - |
| 1778088839 | 15° C | 84% | 988.7 hPa | 0 mm | - | - | - |
| 1778088538 | 15° C | 81% | 988.7 hPa | 0 mm | - | - | - |
| 1778088238 | 15° C | 81% | 988.8 hPa | 0 mm | - | - | - |
| 1778087938 | 15° C | 81% | 988.8 hPa | 0 mm | - | - | - |
| 1778085539 | 15° C | 84% | 989.1 hPa | 0 mm | - | - | - |
| 1778084938 | 15° C | 84% | 989.1 hPa | 0 mm | - | - | - |
| 1778084040 | 15° C | 84% | 989.5 hPa | 0 mm | - | - | - |
| 1778083739 | 15° C | 83% | 989.5 hPa | 0 mm | - | - | - |
| 1778083139 | 15° C | 83% | 989.5 hPa | 0 mm | - | - | - |
| 1778082539 | 15° C | 83% | 989.6 hPa | 0 mm | - | - | - |
| 1778081040 | 15° C | 83% | 989.7 hPa | 0 mm | - | - | - |
| 1778079840 | 15° C | 82% | 990 hPa | 0 mm | - | - | - |
| 1778077139 | 15° C | 83% | 990.1 hPa | 0 mm | - | - | - |
| 1778076839 | 15° C | 82% | 990.2 hPa | 0 mm | - | - | - |
| 1778076539 | 15° C | 82% | 990.2 hPa | 0 mm | - | - | - |
| 1778074739 | 14.44° C | 84% | 990.4 hPa | 0 mm | - | - | - |
| 1778074439 | 14.44° C | 84% | 990.4 hPa | 0 mm | - | - | - |
* Rain latest hour (hover to see other rain measurements)
** Current wind speed in m/s (hover to see current wind gust speed)